When you browse on this site, cookies collect data to enhance your experience and personalize the content and advertising you see.
Visit our Privacy Policy to learn more. By continuing to use the site, you agree to this use of cookies and data.
  • In Portugal
  • List of Countries
  • For 7 days
  • Water Temperature
  • Satellite Maps
  • Weather Map
  • Weather Widgets
  • user-avatar
    Login

    Hourly Weather Shahtarsk

    Today, 13 December, Thursday

    Time Temperature Precipitation Wind Pressure Humidity
    00:00 -2°C° 0 mm 4 mps 737 mmHg 86%
    01:00 -2°C° 0 mm 4 mps 737 mmHg 86%
    02:00 -1°C° 0 mm 3 mps 738 mmHg 87%
    03:00 -2°C° 0 mm 3 mps 738 mmHg 90%
    04:00 -2°C° 0 mm 3 mps 738 mmHg 90%
    05:00 -2°C° 0 mm 3 mps 738 mmHg 89%
    06:00 -2°C° 0 mm 3 mps 739 mmHg 88%
    07:00 -2°C° 0 mm 3 mps 739 mmHg 88%
    08:00 -2°C° 0 mm 3 mps 740 mmHg 88%
    09:00 -2°C° 0 mm 3 mps 740 mmHg 88%
    10:00 -1°C° 0 mm 3 mps 741 mmHg 85%
    11:00 0°C° 0 mm 3 mps 741 mmHg 82%
    12:00 0°C° 0 mm 3 mps 742 mmHg 79%
    13:00 0°C° 0 mm 3 mps 742 mmHg 79%
    14:00 0°C° 0 mm 3 mps 742 mmHg 80%
    15:00 +2°C° 0 mm 2 mps 742 mmHg 80%
    16:00 +1°C° 0 mm 2 mps 742 mmHg 81%
    17:00 +1°C° 0 mm 2 mps 743 mmHg 83%
    18:00 -1°C° 0 mm 2 mps 743 mmHg 84%
    19:00 +1°C° 0 mm 1 mps 743 mmHg 84%
    20:00 +1°C° 0 mm 1 mps 744 mmHg 85%
    21:00 +1°C° 0 mm 1 mps 744 mmHg 85%
    22:00 +1°C° 0 mm 1 mps 744 mmHg 85%
    23:00 +1°C° 0 mm 1 mps 744 mmHg 86%

    Tomorrow, 14 December, Friday

    Time Temperature Precipitation Wind Pressure Humidity
    00:00 0°C° 0 mm 1 mps 744 mmHg 86%
    01:00 0°C° 0 mm 1 mps 744 mmHg 87%
    02:00 0°C° 0 mm 1 mps 744 mmHg 87%
    03:00 -2°C° 0 mm 2 mps 744 mmHg 87%
    04:00 -2°C° 0 mm 2 mps 745 mmHg 88%
    05:00 -2°C° 0 mm 2 mps 745 mmHg 88%
    06:00 -2°C° 0 mm 2 mps 745 mmHg 89%
    07:00 -2°C° 0 mm 2 mps 745 mmHg 89%
    08:00 -2°C° 0 mm 2 mps 745 mmHg 90%
    09:00 0°C° 0 mm 1 mps 745 mmHg 90%
    10:00 +1°C° 0 mm 1 mps 746 mmHg 88%
    11:00 +2°C° 0 mm 1 mps 746 mmHg 85%
    12:00 +3°C° 0 mm 1 mps 746 mmHg 83%
    13:00 +3°C° 0 mm 1 mps 746 mmHg 83%
    14:00 +3°C° 0 mm 1 mps 746 mmHg 84%
    15:00 +2°C° 0 mm 0 mps 746 mmHg 84%
    16:00 +1°C° 0 mm 0 mps 746 mmHg 86%
    17:00 0°C° 0 mm 0 mps 747 mmHg 87%
    18:00 0°C° 0 mm 0 mps 747 mmHg 89%
    19:00 0°C° 0 mm 0 mps 747 mmHg 89%
    20:00 -1°C° 0 mm 0 mps 747 mmHg 89%
    21:00 -1°C° 0 mm 0 mps 747 mmHg 89%
    22:00 0°C° 0 mm 1 mps 747 mmHg 89%
    23:00 0°C° 0 mm 1 mps 748 mmHg 88%

    Day after tomorrow, 15 December, Saturday

    Time Temperature Precipitation Wind Pressure Humidity
    00:00 0°C° 0 mm 1 mps 748 mmHg 88%
    01:00 0°C° 0 mm 1 mps 748 mmHg 88%
    02:00 0°C° 0 mm 1 mps 748 mmHg 88%
    03:00 0°C° 0 mm 1 mps 748 mmHg 88%
    04:00 0°C° 0 mm 1 mps 748 mmHg 88%
    05:00 0°C° 0 mm 1 mps 748 mmHg 88%
    06:00 0°C° 0 mm 1 mps 748 mmHg 88%
    07:00 0°C° 0 mm 1 mps 749 mmHg 88%
    08:00 -1°C° 0 mm 0 mps 749 mmHg 88%
    09:00 -1°C° 0 mm 0 mps 749 mmHg 88%
    10:00 0°C° 0 mm 0 mps 750 mmHg 84%
    11:00 +1°C° 0 mm 0 mps 750 mmHg 80%
    12:00 +1°C° 0 mm 0 mps 750 mmHg 76%
    13:00 +2°C° 0 mm 1 mps 750 mmHg 76%
    14:00 +2°C° 0 mm 1 mps 750 mmHg 77%
    15:00 +2°C° 0 mm 1 mps 750 mmHg 78%
    16:00 +2°C° 0 mm 1 mps 750 mmHg 81%
    17:00 +1°C° 0 mm 1 mps 751 mmHg 85%
    18:00 -2°C° 0 mm 2 mps 751 mmHg 88%
    19:00 -3°C° 0 mm 2 mps 751 mmHg 89%
    20:00 -3°C° 0 mm 2 mps 751 mmHg 90%
    21:00 -3°C° 0 mm 2 mps 751 mmHg 91%
    22:00 -4°C° 0 mm 2 mps 751 mmHg 91%
    23:00 -4°C° 0 mm 2 mps 751 mmHg 90%

    16 December, Sunday

    Time Temperature Precipitation Wind Pressure Humidity
    00:00 -4°C° 0 mm 2 mps 752 mmHg 90%
    01:00 -4°C° 0 mm 2 mps 752 mmHg 89%
    02:00 -5°C° 0 mm 3 mps 752 mmHg 88%
    03:00 -5°C° 0 mm 3 mps 752 mmHg 87%
    04:00 -5°C° 0 mm 3 mps 752 mmHg 87%
    05:00 -5°C° 0 mm 3 mps 752 mmHg 87%
    06:00 -6°C° 0 mm 3 mps 752 mmHg 87%
    07:00 -5°C° 0 mm 3 mps 752 mmHg 87%
    08:00 -5°C° 0 mm 4 mps 752 mmHg 86%
    09:00 -5°C° 0 mm 4 mps 752 mmHg 86%
    10:00 -5°C° 0 mm 4 mps 752 mmHg 83%
    11:00 -4°C° 0 mm 4 mps 752 mmHg 81%
    12:00 -5°C° 0 mm 5 mps 752 mmHg 78%
    13:00 -5°C° 0 mm 5 mps 751 mmHg 77%
    14:00 -5°C° 0 mm 5 mps 751 mmHg 77%
    15:00 -5°C° 0 mm 5 mps 751 mmHg 76%
    16:00 -5°C° 0 mm 5 mps 751 mmHg 79%
    17:00 -6°C° 0 mm 5 mps 751 mmHg 81%
    18:00 -6°C° 0 mm 5 mps 751 mmHg 83%
    19:00 -6°C° 0 mm 5 mps 751 mmHg 83%
    20:00 -6°C° 0 mm 6 mps 751 mmHg 84%
    21:00 -6°C° 0 mm 6 mps 751 mmHg 84%
    22:00 -8°C° 0 mm 6 mps 751 mmHg 83%
    23:00 -8°C° 0 mm 6 mps 750 mmHg 82%

    17 December, Monday

    Time Temperature Precipitation Wind Pressure Humidity
    00:00 -8°C° 0 mm 6 mps 750 mmHg 81%
    01:00 -8°C° 0 mm 6 mps 750 mmHg 80%
    02:00 -8°C° 0 mm 6 mps 750 mmHg 79%
    03:00 -8°C° 0 mm 6 mps 750 mmHg 77%
    04:00 -9°C° 0 mm 6 mps 749 mmHg 75%
    05:00 -9°C° 0 mm 6 mps 749 mmHg 72%
    06:00 -9°C° 0 mm 6 mps 749 mmHg 70%
    07:00 -9°C° 0 mm 6 mps 749 mmHg 68%
    08:00 -9°C° 0 mm 6 mps 749 mmHg 66%
    09:00 -9°C° 0 mm 6 mps 749 mmHg 64%
    10:00 -9°C° 0 mm 6 mps 749 mmHg 61%
    11:00 -8°C° 0 mm 7 mps 749 mmHg 59%
    12:00 -8°C° 0 mm 7 mps 749 mmHg 56%
    13:00 -8°C° 0 mm 7 mps 749 mmHg 56%
    14:00 -7°C° 0 mm 7 mps 749 mmHg 56%
    15:00 -7°C° 0 mm 7 mps 748 mmHg 56%
    16:00 -8°C° 0 mm 7 mps 749 mmHg 58%
    17:00 -8°C° 0 mm 7 mps 749 mmHg 60%
    18:00 -9°C° 0 mm 7 mps 749 mmHg 62%
    19:00 -9°C° 0 mm 7 mps 749 mmHg 65%
    20:00 -11°C° 0 mm 7 mps 749 mmHg 67%
    21:00 -11°C° 0 mm 7 mps 749 mmHg 70%
    22:00 -10°C° 0 mm 6 mps 749 mmHg 71%
    23:00 -10°C° 0 mm 6 mps 749 mmHg 73%

    18 December, Tuesday

    Time Temperature Precipitation Wind Pressure Humidity
    00:00 -11°C° 0 mm 6 mps 749 mmHg 75%
    01:00 -11°C° 0 mm 6 mps 749 mmHg 76%
    02:00 -11°C° 0 mm 6 mps 749 mmHg 78%
    03:00 -11°C° 0 mm 6 mps 749 mmHg 79%
    04:00 -11°C° 0 mm 6 mps 749 mmHg 80%
    05:00 -11°C° 0 mm 6 mps 749 mmHg 81%
    06:00 -11°C° 0 mm 6 mps 749 mmHg 82%
    07:00 -11°C° 0 mm 6 mps 749 mmHg 81%
    08:00 -11°C° 0 mm 6 mps 749 mmHg 81%
    09:00 -11°C° 0 mm 6 mps 749 mmHg 80%
    10:00 -10°C° 0 mm 6 mps 749 mmHg 78%
    11:00 -10°C° 0 mm 6 mps 749 mmHg 76%
    12:00 -9°C° 0 mm 6 mps 749 mmHg 74%
    13:00 -9°C° 0 mm 6 mps 749 mmHg 74%
    14:00 -9°C° 0 mm 6 mps 749 mmHg 74%
    15:00 -8°C° 0 mm 6 mps 748 mmHg 74%
    16:00 -8°C° 0 mm 6 mps 748 mmHg 75%
    17:00 -8°C° 0 mm 6 mps 748 mmHg 77%
    18:00 -9°C° 0 mm 6 mps 749 mmHg 78%
    19:00 -8°C° 0 mm 6 mps 749 mmHg 79%
    20:00 -8°C° 0 mm 6 mps 749 mmHg 80%
    21:00 -8°C° 0 mm 6 mps 749 mmHg 81%
    22:00 -8°C° 0 mm 6 mps 748 mmHg 81%
    23:00 -8°C° 0 mm 6 mps 748 mmHg 81%
    Show more